Weather History for Limon, CO

Change the Weather History Date:

Sunday, November 11, 2012

  Actual Average Record
Temperature  
Mean Temperature 13 °F -  
Max Temperature 27 °F - 73 °F (2005)
Min Temperature -2 °F - -2 °F (2012)
Degree Days  
Heating Degree Days 52    
Month to date heating degree days 255  
Cooling Degree Days 0    
Month to date cooling degree days 0  
Moisture  
Dew Point 13 °F    
Average Humidity 86    
Maximum Humidity 96    
Minimum Humidity 70    
Precipitation  
Precipitation 0.14 in - 0.14 in (2012)
Month to date precipitation 0.22  
Year to date precipitation 9.51  
Sea Level Pressure  
Sea Level Pressure 30.00 in    
Wind  
Wind Speed 9 mph (NNW)    
Max Wind Speed 15 mph    
Max Gust Speed 18 mph    
Visibility 5 miles    
Events Fog , Snow    
T = Trace of Precipitation, MM = Missing Value Source: NWS Daily Summary

Daily Weather History Graph

Daily Weather History Graph

Search for Another Location

Airport:

Trip Planner

Search our weather history database for the weather conditions in past years. The results will help you decide how hot, cold, wet, or windy it might be!

Date:

Astronomy

Nov. 11, 2012 Rise Set
Actual Time 6:34 AM MST 4:42 PM MST
Civil Twilight 6:05 AM MST 5:11 PM MST
Nautical Twilight 5:33 AM MST 5:43 PM MST
Astronomical Twilight 5:02 AM MST 6:14 PM MST
Moon 3:51 AM MST (11/11) 3:07 PM MST (11/11)
Length of Visible Light 11h 05m
Length of Day
10h 08m
Waning Crescent, 7% of the Moon is Illuminated
Nov 11
Waning Crescent
Nov 13
New
Nov 20
First Quarter
Nov 28
Full
Dec 6
Last Quarter

Hourly Weather History & Observations

Time (MST) Temp. Windchill Dew Point Humidity Pressure Visibility Wind Dir Wind Speed Gust Speed Precip Events Conditions
12:16 AM 19.4 °F 8.6 °F 17.6 °F 93% 29.81 in 2.0 mi NW 9.2 mph - 0.01 in Snow Light Snow
12:45 AM 17.6 °F 6.4 °F 15.8 °F 93% 29.82 in 3.0 mi NW 9.2 mph - 0.01 in Snow Light Snow
12:55 AM 18.0 °F 6.9 °F 16.0 °F 92% 29.86 in 4.0 mi NW 9.2 mph - 0.01 in Snow Light Snow
1:55 AM 18.0 °F 4.8 °F 16.0 °F 92% 29.91 in 10.0 mi North 12.7 mph - 0.00 in   Overcast
2:04 AM 17.6 °F 5.0 °F 15.8 °F 93% 29.85 in 9.0 mi North 11.5 mph - 0.00 in Snow Light Snow
2:32 AM 17.6 °F 5.7 °F 15.8 °F 93% 29.86 in 5.0 mi North 10.4 mph - 0.00 in Snow Light Snow
2:46 AM 17.6 °F 6.4 °F 15.8 °F 93% 29.86 in 2.5 mi North 9.2 mph - 0.01 in Snow Light Snow
2:55 AM 18.0 °F 5.4 °F 16.0 °F 92% 29.91 in 3.0 mi North 11.5 mph - 0.01 in Snow Light Snow
3:23 AM 17.6 °F 5.7 °F 15.8 °F 93% 29.86 in 1.8 mi NNW 10.4 mph - 0.00 in Snow Light Snow
3:30 AM 17.6 °F 4.3 °F 15.8 °F 93% 29.86 in 2.5 mi NNW 12.7 mph - 0.00 in Snow Light Snow
3:40 AM 17.6 °F 5.0 °F 15.8 °F 93% 29.86 in 1.8 mi NNW 11.5 mph - 0.00 in Snow Light Snow
3:55 AM 17.1 °F 3.6 °F 15.1 °F 92% 29.93 in 1.5 mi North 12.7 mph - 0.01 in Snow Light Snow
4:07 AM 17.6 °F 3.2 °F 14.0 °F 86% 29.87 in 3.0 mi North 15.0 mph - 0.00 in Snow Light Snow
4:12 AM 17.6 °F 5.0 °F 14.0 °F 86% 29.87 in 1.8 mi North 11.5 mph - 0.00 in Snow Light Snow
4:18 AM 15.8 °F 2.1 °F 14.0 °F 93% 29.87 in 0.8 mi North 12.7 mph - 0.00 in Snow Light Snow
4:39 AM 15.8 °F 2.7 °F 14.0 °F 93% 29.87 in 1.2 mi NNW 11.5 mph - 0.02 in Snow Light Snow
4:45 AM 15.8 °F 2.1 °F 12.2 °F 86% 29.88 in 2.0 mi NNW 12.7 mph - 0.02 in Snow Light Snow
4:55 AM 16.0 °F 3.6 °F 12.9 °F 88% 29.96 in 4.0 mi North 10.4 mph - 0.02 in Snow Light Snow
5:05 AM 15.8 °F 2.1 °F 12.2 °F 86% 29.88 in 1.8 mi North 12.7 mph - N/A Snow Light Snow
5:13 AM 15.8 °F 2.1 °F 14.0 °F 93% 29.88 in 1.5 mi North 12.7 mph - 0.00 in Snow Light Snow
5:29 AM 15.8 °F 1.4 °F 12.2 °F 86% 29.88 in 0.8 mi NNW 13.8 mph - 0.01 in Snow Light Snow
5:39 AM 15.8 °F 2.7 °F 12.2 °F 86% 29.88 in 0.5 mi NNW 11.5 mph - 0.01 in Fog , Snow Snow
5:55 AM 15.1 °F -0.1 °F 12.9 °F 91% 29.98 in 0.8 mi NNW 15.0 mph - 0.03 in Snow Light Snow
6:18 AM 15.8 °F 3.4 °F 12.2 °F 86% 29.89 in 1.0 mi North 10.4 mph - N/A Snow Light Snow
6:46 AM 15.8 °F 5.1 °F 12.2 °F 86% 29.90 in 0.5 mi NW 8.1 mph - 0.02 in Fog , Snow Snow
6:55 AM 15.1 °F 3.3 °F 12.9 °F 91% 30.00 in 0.5 mi NNW 9.2 mph - 0.02 in Fog , Snow Snow
7:13 AM 15.8 °F 6.1 °F 12.2 °F 86% 29.92 in 1.0 mi WNW 6.9 mph - 0.04 in Snow Light Snow
7:29 AM 15.8 °F 7.2 °F 12.2 °F 86% 29.93 in 2.0 mi WNW 5.8 mph - 0.04 in Snow Light Snow
7:40 AM 15.8 °F 6.1 °F 12.2 °F 86% 29.94 in 3.0 mi West 6.9 mph - 0.04 in Snow Light Snow
7:55 AM 16.0 °F 8.8 °F 12.9 °F 88% 30.04 in 9.0 mi WSW 4.6 mph - 0.04 in   Overcast
8:06 AM 17.6 °F 12.3 °F 12.2 °F 79% 29.95 in 1.8 mi West 3.5 mph - N/A Snow Light Snow
8:15 AM 17.6 °F - 12.2 °F 79% 29.94 in 3.0 mi Calm Calm - 0.00 in Snow Light Snow
8:55 AM 17.1 °F 10.0 °F 12.0 °F 81% 30.08 in 10.0 mi WNW 4.6 mph - 0.00 in   Overcast
9:55 AM 19.0 °F - 12.9 °F 77% 30.10 in 10.0 mi Calm Calm - N/A   Partly Cloudy
11:55 AM 24.1 °F - 16.0 °F 71% 30.08 in 10.0 mi Calm Calm - N/A   Clear
12:55 PM 23.0 °F 18.4 °F 18.0 °F 81% 30.09 in 10.0 mi South 3.5 mph - N/A   Clear
1:55 PM 25.0 °F - 19.9 °F 81% 30.08 in 10.0 mi Calm Calm - N/A   Clear
2:55 PM 25.0 °F - 19.0 °F 78% 30.10 in 10.0 mi Calm Calm - N/A   Clear
3:55 PM 21.9 °F - 19.0 °F 89% 30.14 in 10.0 mi Calm Calm - N/A   Clear
4:55 PM 12.9 °F - 12.0 °F 96% 30.20 in 10.0 mi Calm Calm - N/A   Clear
5:55 PM 14.0 °F 6.5 °F 12.0 °F 92% 30.25 in 10.0 mi North 4.6 mph - N/A   Overcast
6:55 PM 19.0 °F 11.1 °F 10.9 °F 71% 30.26 in 10.0 mi West 5.8 mph - N/A   Overcast
7:55 PM 10.9 °F 1.4 °F 3.0 °F 70% 30.30 in 10.0 mi West 5.8 mph - N/A   Clear
8:55 PM 8.1 °F 1.4 °F 1.0 °F 73% 30.34 in 10.0 mi North 3.5 mph - N/A   Clear
9:55 PM 3.9 °F -6.9 °F -0.9 °F 80% 30.36 in 10.0 mi North 5.8 mph - N/A   Clear
10:55 PM 1.0 °F - -2.9 °F 83% 30.38 in 10.0 mi Calm Calm - N/A   Clear
11:55 PM -0.9 °F - -5.1 °F 83% 30.38 in 10.0 mi Calm Calm - N/A   Clear